Regional Weather Roundup
Issued by NWS

Home | Current Version | Previous Version | Graphics & Text | Print | Product List | Glossary Off
Versions: 1 2 3 4 5 6 7 8 9 10 11 12 13 14 15 16 17 18 19 20 21 22 23 24 25 26 27 28 29 30 31 32 33 34 35 36 37 38 39 40 41 42 43 44 45 46 47 48 49 50

000
ASUS44 KMEG 022310
RWRTN
TENNESSEE HOURLY STATE WEATHER ROUNDUP
NATIONAL WEATHER SERVICE MEMPHIS TN
600 PM CDT TUE SEP 02 2014

TNZ002-004-019-021-049-052-054-088>092-030000-
WEST TENNESSEE

CITY           SKY/WX    TMP DP  RH WIND       PRES   REMARKS
MEMPHIS INTL   CLOUDY    78  73  84 S7        29.91S
NWS MEMPHIS      N/A     78 N/A N/A MISG        N/A
JACKSON        CLOUDY    84  75  74 SW3       29.92S HX  92
DYERSBURG      CLOUDY    82  64  54 N10       29.92S
UNION CITY     SUNNY     81  73  78 N6        29.93R
PARIS          MOSUNNY   77  75  94 SE3       29.95R
HUNTINGDON     CLOUDY    76  73  90 CALM      29.93F
LEXINGTON      SUNNY     82  72  69 S12       29.93R
SAVANNAH       SUNNY     81  75  83 S6        29.94F
$$

TNZ008-025-027-028-033-062-065-066-030000-
NORTH MIDDLE TENNESSEE

CITY           SKY/WX    TMP DP  RH WIND       PRES   REMARKS
NASHVILLE      PTSUNNY   76  72  87 CALM      29.95R
DICKSON          N/A     72  68  88 NW6       29.97R
PORTLAND       PTSUNNY   75  72  88 N7        29.97R
CLARKSVILLE    CLOUDY    74  72  93 S9        29.95S
SMYRNA         PTSUNNY   83  74  74 N10       29.95R
MURFREESBORO   PTSUNNY   81  72  74 W5        29.94
COOKEVILLE     CLOUDY    79  73  83 N10       29.98R
LIVINGSTON     PTSUNNY   70  69  96 SW3       30.01
GALLATIN       PTSUNNY   76  75  96 CALM      29.95F
CROSSVILLE     PTSUNNY   82  67  60 W5        30.02F
$$

TNZ061-075-076-078-094-096-097-030000-
SOUTH MIDDLE TENNESSEE

CITY           SKY/WX    TMP DP  RH WIND       PRES   REMARKS
LEWISBURG      PTSUNNY   87  73  62 VRB5      29.95R HX  94
FAYETTEVILLE   MOSUNNY   84  70  61 SW15      29.97R
TULLAHOMA      SUNNY     84  70  61 SW6       29.98S
WINCHESTER     MOSUNNY   88  72  58 SW5       29.97R HX  94
MCMINNVILLE    SUNNY     84  73  70 SW6       29.96S HX  91
COLUMBIA         N/A     88  75  66 SW6       29.95R HX  97
SHELBYVILLE    PTSUNNY   88  75  66 W8        29.97R HX  97
$$

TNZ017-018-042-046-047-030000-
NORTHEAST TENNESSEE

CITY           SKY/WX    TMP DP  RH WIND       PRES   REMARKS
TRI CITIES     MOSUNNY   86  62  44 W8        29.99S
ELIZABETHTON   CLEAR     84  64  51 W5        29.99S
$$

TNZ012-013-036-069-073-074-030000-
CENTRAL EAST TENNESSEE

CITY           SKY/WX    TMP DP  RH WIND       PRES   REMARKS
KNOXVILLE      MOSUNNY   87  69  54 W9        29.95F HX  91
OAK RIDGE      MOSUNNY   88  69  53 SW5       29.97F HX  92
GATLINBURG     CLEAR     88  68  51 W8        29.95F HX  91
MORRISTOWN     CLEAR     86  68  54 W7        29.98F
$$

TNZ083-085-099-030000-
SOUTHEAST TENNESSEE

CITY           SKY/WX    TMP DP  RH WIND       PRES   REMARKS
CHATTANOOGA    MOSUNNY   91  65  41 SW12      29.95F HX  93
$$

SKY/WX REPORTED AS FAIR MEANS FEW OR NO CLOUDS BELOW
12 THOUSAND FEET.




USA.gov is the U.S. government's official web portal to all federal, state and local government web resources and services.